Location: Unnamed
(48.6007°N, 2.4808°E)
Time: 06:19:38
(UTC+02:00)

BEESAT 3 - Visible Passes

Search period start: 29 March 2023 00:00
Search period end: 08 April 2023 00:00
Orbit: 411 x 437 km, 64.9° (Epoch: 28 March)

Date Brightness Start Highest point End Pass type
(mag) Time Alt. Az. Time Alt. Az. Time Alt. Az.
29 Mar ? 04:33:23 23° NE 04:33:23 23° NE 04:34:53 10° NE visible
29 Mar ? 06:06:28 17° WNW 06:07:27 19° NW 06:10:00 10° NNE visible
30 Mar ? 03:49:30 10° ENE 03:49:30 10° ENE 03:49:34 10° ENE visible
30 Mar ? 05:22:34 28° NNW 05:22:34 28° NNW 05:25:14 10° NNE visible
31 Mar ? 04:38:29 26° NNE 04:38:29 26° NNE 04:40:11 10° NNE visible
31 Mar ? 06:12:05 10° NW 06:13:13 11° NNW 06:14:20 10° N visible
01 Apr ? 03:54:13 14° NE 03:54:13 14° NE 03:54:50 10° NE visible
01 Apr ? 05:27:16 16° NW 05:27:27 16° NNW 05:29:41 10° N visible
02 Apr ? 04:42:48 20° N 04:42:48 20° N 04:44:31 10° NNE visible
03 Apr ? 03:58:09 16° NNE 03:58:09 16° NNE 03:59:01 10° NNE visible
04 Apr ? 04:46:20 14° NNW 04:46:20 14° NNW 04:47:50 10° N visible
05 Apr ? 04:01:19 15° N 04:01:19 15° N 04:02:17 10° NNE visible
06 Apr ? 03:16:07 11° NNE 03:16:07 11° NNE 03:16:21 10° NNE visible
07 Apr ? 04:03:42 12° NNW 04:03:42 12° NNW 04:04:27 10° N visible
